Location: Oregon Trail
(41.1872°N, 102.0741°W)
Time: 15:24:41
(UTC+00:00)

SL-16 R/B - Pass Details

Date: 19 November 2019
Orbit: 842 x 846 km, 71.0° (Epoch: 08 December)

Event Time Altitude Azimuth Distance (km) Brightness Sun altitude
Exits shadow 12:55:48 - 309° (NW) 2,581 4.1 -8.7°
Reaches altitude 10° 12:56:12 10° 306° (NW) 2,473 4.0 -8.6°
Maximum altitude 13:00:15 21° 260° (W) 1,834 3.5 -7.9°
Drops below altitude 10° 13:04:18 10° 214° (SSW) 2,459 4.5 -7.2°
Sets 13:07:19 0° 198° (SSW) 3,389 5.4 -6.6°
